Tracking 20942 objects as of 9-Jul-2020
HD Live streaming from Space Station
objects crossing your sky now

COSMOS 1437

Track COSMOS 1437 now!
10-day predictions
COSMOS 1437 is classified as:


NORAD ID: 13770
Int'l Code: 1983-003A
Perigee: 378.5 km
Apogee: 382.1 km
Inclination: 81.2 °
Period: 92.0 minutes
Semi major axis: 6751 km
RCS: 7.8902 m2 (large)
Launch date: January 20, 1983
Source: Commonwealth of Independent States (former USSR) (CIS)
Launch site: PLESETSK MISSILE AND SPACE COMPLEX (PKMTR)
aabbcc
Your satellite tracking list
Your tracking list is empty




NASA's NSSDC Master Catalog

Two Line Element Set (TLE):
1 13770U 83003A   20191.40870931 +.00005451 +00000-0 +55175-4 0  9999
2 13770 081.1567 201.5793 0002654 185.3103 174.8125 15.65021164060367
Source of the keplerian elements: AFSPC